GW7179 Weather Reports


time (UTC)temp
C
wind
direction
speed
KPH
gust
KPH
rain 1hr
cm
rain 24hr
cm
rain mn
cm
humidity
%
barometer
mb
20260509150431 25 278 11.3 16.1 0.00 0.00 0.00 55 993.9
20260509145931 25 295 11.3 16.1 0.00 0.00 0.00 58 993.9
20260509145431 25 276 4.8 16.1 0.00 0.00 0.00 59 993.9
20260509144932 24 281 6.4 16.1 0.00 0.00 0.00 63 993.9
20260509144431 24 299 8.0 12.9 0.00 0.00 0.00 65 993.9
20260509143931 24 300 9.7 17.7 0.00 0.00 0.00 66 993.9
20260509143431 23 314 8.0 12.9 0.00 0.00 0.00 71 993.9
20260509142931 23 311 6.4 11.3 0.00 0.00 0.00 73 993.9
20260509142432 23 316 11.3 14.5 0.00 0.00 0.00 74 993.9
20260509141931 22 328 8.0 9.7 0.00 0.00 0.00 79 993.9
20260509141432 22 321 8.0 11.3 0.00 0.00 0.00 79 993.9
20260509140931 22 284 9.7 11.3 0.00 0.00 0.00 80 993.9
20260509140432 22 271 8.0 9.7 0.00 0.00 0.00 81 993.9
20260509135932 22 296 6.4 11.3 0.00 0.00 0.00 81 993.9
20260509135431 22 278 8.0 11.3 0.00 0.00 0.00 82 993.9
20260509134931 22 326 9.7 9.7 0.00 0.00 0.00 82 993.9
20260509134431 22 299 8.0 16.1 0.00 0.00 0.00 83 993.6
20260509133931 22 267 9.7 12.9 0.00 0.00 0.00 83 993.6
20260509133432 21 349 8.0 12.9 0.00 0.00 0.00 84 993.9
20260509132932 21 326 4.8 11.3 0.00 0.00 0.00 84 993.9
20260509132431 21 293 11.3 12.9 0.00 0.00 0.00 84 993.9
20260509131931 21 304 4.8 9.7 0.00 0.00 0.00 86 993.9
20260509131431 21 291 4.8 16.1 0.00 0.00 0.00 86 993.6
20260509130932 21 275 6.4 11.3 0.00 0.00 0.00 87 993.9
20260509130432 21 312 6.4 9.7 0.00 0.00 0.00 87 993.9
20260509125931 21 357 0.0 12.9 0.00 0.00 0.00 88 993.6
20260509125431 20 288 4.8 11.3 0.00 0.00 0.00 88 993.6
20260509124931 20 327 6.4 8.0 0.00 0.00 0.00 89 993.6
20260509124431 20 296 8.0 12.9 0.00 0.00 0.00 89 993.6
20260509123931 20 339 8.0 14.5 0.00 0.00 0.00 90 993.9
20260509123432 20 358 6.4 12.9 0.00 0.00 0.00 90 993.6
20260509122931 20 286 8.0 14.5 0.00 0.00 0.00 91 993.6
20260509122431 20 325 4.8 12.9 0.00 0.00 0.00 91 993.6
20260509121931 20 221 4.8 9.7 0.00 0.00 0.00 91 993.6
20260509121432 20 292 9.7 9.7 0.00 0.00 0.00 91 993.6
20260509120932 20 314 4.8 11.3 0.00 0.00 0.00 92 993.6
20260509120431 20 350 3.2 9.7 0.00 0.00 0.00 92 993.6
20260509115931 20 294 3.2 9.7 0.00 0.00 0.00 92 993.6
20260509115432 20 304 6.4 9.7 0.00 0.00 0.00 92 993.6
20260509114931 20 307 6.4 9.7 0.00 0.00 0.00 92 993.6
20260509114431 20 344 3.2 9.7 0.00 0.00 0.00 91 993.2
20260509113931 20 286 9.7 14.5 0.00 0.00 0.00 91 993.6
20260509113431 20 293 8.0 12.9 0.00 0.00 0.00 91 993.2
20260509112931 20 303 12.9 17.7 0.00 0.00 0.00 90 992.9
20260509112431 20 298 4.8 17.7 0.00 0.00 0.00 89 992.9
20260509111931 20 293 9.7 17.7 0.00 0.00 0.00 88 992.6
20260509111431 20 282 9.7 17.7 0.00 0.00 0.00 87 992.6
20260509110931 20 289 9.7 20.9 0.00 0.00 0.00 85 992.6
20260509110431 20 289 8.0 14.5 0.00 0.00 0.00 84 992.6
20260509105931 20 244 9.7 14.5 0.00 0.00 0.00 82 992.2
20260509105432 20 303 6.4 16.1 0.00 0.00 0.00 82 992.2
20260509104931 20 296 12.9 14.5 0.00 0.00 0.00 82 992.2
20260509104431 20 275 8.0 11.3 0.00 0.00 0.00 84 992.2
20260509103932 20 278 4.8 8.0 0.00 0.00 0.00 85 992.2
20260509103433 20 275 4.8 8.0 0.00 0.00 0.00 84 991.9
20260509102931 20 266 4.8 8.0 0.00 0.00 0.00 84 991.9
20260509102432 20 292 3.2 6.4 0.00 0.00 0.00 83 991.9
20260509101931 20 292 4.8 6.4 0.00 0.00 0.00 82 991.9
20260509101431 20 273 4.8 9.7 0.00 0.00 0.00 81 991.9
20260509100931 21 290 6.4 9.7 0.00 0.00 0.00 80 991.9
20260509100432 21 305 4.8 9.7 0.00 0.00 0.00 80 991.9
20260509095932 21 297 1.6 4.8 0.00 0.00 0.00 80 991.9
20260509095431 21 340 1.6 3.2 0.00 0.00 0.00 79 991.9
20260509094931 21 319 1.6 4.8 0.00 0.00 0.00 79 991.9
20260509094431 21 57 0.0 1.6 0.00 0.00 0.00 78 991.2
20260509093932 22 299 3.2 3.2 0.00 0.00 0.00 78 991.2
20260509093431 22 355 1.6 3.2 0.00 0.00 0.00 79 991.5
20260509092931 22 348 3.2 4.8 0.00 0.00 0.00 79 991.2
20260509092431 22 273 4.8 6.4 0.00 0.00 0.00 79 991.2
20260509091932 22 240 4.8 4.8 0.00 0.00 0.00 77 991.2
20260509091431 22 269 3.2 6.4 0.00 0.00 0.00 75 990.9
20260509090931 22 24 1.6 8.0 0.00 0.00 0.00 75 990.9
20260509090432 22 293 6.4 8.0 0.00 0.00 0.00 77 990.9
20260509085932 22 260 4.8 9.7 0.00 0.00 0.00 79 991.2
20260509085431 22 304 8.0 16.1 0.00 0.00 0.00 80 991.5
20260509084933 22 299 6.4 19.3 0.00 0.00 0.00 82 990.9
20260509084432 22 267 8.0 11.3 0.00 0.00 0.00 84 990.5
20260509083931 21 179 8.0 22.5 0.00 0.00 0.00 85 989.2
20260509083432 21 143 8.0 11.3 0.00 0.00 0.00 85 989.5
20260509082931 21 192 6.4 14.5 0.00 0.00 0.00 86 989.2
20260509082431 21 106 6.4 11.3 0.00 0.00 0.00 86 989.2
20260509081931 21 85 3.2 9.7 0.00 0.00 0.00 87 989.5
20260509081431 21 96 6.4 9.7 0.00 0.00 0.00 87 989.8
20260509080932 21 163 6.4 12.9 0.00 0.00 0.00 87 990.2
20260509080431 21 165 4.8 11.3 0.00 0.00 0.00 86 990.5
20260509075931 21 129 3.2 11.3 0.00 0.00 0.00 86 990.5
20260509075432 21 147 4.8 11.3 0.00 0.00 0.00 86 991.5
20260509074931 21 204 8.0 8.0 0.00 0.00 0.00 86 991.5
20260509074431 21 133 1.6 11.3 0.00 0.00 0.00 86 991.9
20260509073931 21 222 4.8 11.3 0.00 0.00 0.00 86 992.2
20260509073431 21 256 4.8 14.5 0.00 0.00 0.00 86 992.6
20260509072931 21 301 3.2 6.4 0.00 0.00 0.00 87 992.6
20260509072431 21 226 3.2 9.7 0.00 0.00 0.00 87 992.9
20260509071932 21 169 4.8 8.0 0.00 0.00 0.00 88 992.9
20260509071431 21 204 8.0 11.3 0.00 0.00 0.00 88 993.2
20260509070931 21 279 4.8 8.0 0.00 0.00 0.00 89 993.2
20260509070432 21 262 3.2 8.0 0.00 0.00 0.00 89 993.2
20260509065931 21 327 1.6 4.8 0.00 0.00 0.00 90 993.6
20260509065431 20 255 0.0 4.8 0.00 0.00 0.00 90 993.6
20260509064932 20 177 0.0 8.0 0.00 0.00 0.00 90 993.6
20260509064432 20 295 4.8 9.7 0.00 0.00 0.00 90 993.9
20260509063931 20 292 4.8 11.3 0.00 0.00 0.00 90 993.9
20260509063431 20 267 4.8 9.7 0.00 0.00 0.00 90 993.9
20260509062931 20 275 11.3 12.9 0.00 0.00 0.00 90 993.9
20260509062431 20 307 4.8 9.7 0.00 0.00 0.00 91 994.2
20260509061932 20 279 1.6 4.8 0.00 0.00 0.00 91 993.9
20260509061431 20 276 1.6 4.8 0.00 0.00 0.00 90 993.9
20260509060931 20 287 4.8 6.4 0.00 0.00 0.00 91 994.2
20260509060431 20 285 1.6 4.8 0.00 0.00 0.00 91 993.6
20260509055932 20 133 0.0 3.2 0.00 0.00 0.00 90 993.9
20260509055431 20 303 0.0 3.2 0.00 0.00 0.00 89 993.9
20260509054931 20 224 0.0 3.2 0.00 0.00 0.00 89 993.6
20260509054431 20 152 1.6 4.8 0.00 0.00 0.00 89 993.9
20260509053931 20 125 3.2 4.8 0.00 0.00 0.00 87 994.2
20260509053431 20 327 3.2 4.8 0.00 0.00 0.00 87 994.6
20260509052931 21 342 0.0 3.2 0.00 0.00 0.00 86 994.6
20260509052431 21 297 0.0 4.8 0.00 0.00 0.00 86 994.2
20260509051932 21 337 4.8 6.4 0.00 0.00 0.00 86 994.6
20260509051433 21 306 4.8 6.4 0.00 0.00 0.00 86 994.6
20260509050932 21 354 4.8 6.4 0.00 0.00 0.00 86 994.6
20260509050431 21 322 3.2 14.5 0.00 0.00 0.00 86 994.9
20260509045932 21 329 4.8 12.9 0.00 0.00 1.32 85 994.9
20260509045431 21 345 3.2 4.8 0.00 0.00 1.32 85 993.9
20260509044931 21 230 0.0 1.6 0.00 0.00 1.32 84 993.6
20260509044431 21 219 3.2 3.2 0.00 0.00 1.32 84 993.6
20260509043931 21 305 1.6 3.2 0.00 0.00 1.32 84 993.6
20260509042954 21 39 1.6 3.2 0.00 0.00 1.32 83 993.9
20260509042431 21 27 3.2 4.8 0.00 0.00 1.32 82 993.6
20260509041931 21 50 3.2 6.4 0.00 0.00 1.32 82 993.2
20260509041431 22 160 6.4 6.4 0.00 0.00 1.32 82 992.9
20260509040931 22 186 3.2 9.7 0.00 0.00 1.32 82 993.2
20260509040432 22 126 4.8 11.3 0.00 0.00 1.32 81 993.2
20260509035931 22 159 6.4 6.4 0.00 0.00 1.32 81 992.9
20260509035431 22 175 0.0 9.7 0.00 0.00 1.32 81 993.2
20260509034931 22 146 4.8 9.7 0.00 0.00 1.32 81 992.9
20260509034431 22 113 8.0 9.7 0.00 0.00 1.32 81 992.9
20260509033931 22 68 3.2 4.8 0.00 0.00 1.32 81 993.2
20260509033431 22 142 4.8 4.8 0.00 0.00 1.32 80 993.6
20260509032933 22 75 3.2 4.8 0.00 0.00 1.32 80 993.9
20260509032431 22 8 3.2 6.4 0.00 0.00 1.32 80 993.9
20260509031931 22 3 0.0 6.4 0.00 0.00 1.32 80 993.9
20260509031432 22 355 1.6 4.8 0.00 0.00 1.32 80 993.6
20260509030931 22 346 4.8 6.4 0.00 0.00 1.32 80 993.6
20260509030431 22 40 4.8 6.4 0.00 0.00 1.32 80 993.2
20260509025931 22 134 4.8 11.3 0.00 0.00 1.32 80 992.9
20260509025431 22 94 3.2 9.7 0.00 0.00 1.32 80 992.6
20260509024931 22 158 8.0 9.7 0.00 0.00 1.32 80 992.6
20260509024431 22 45 4.8 6.4 0.00 0.00 1.32 80 992.6
20260509023931 22 158 4.8 8.0 0.00 0.00 1.32 80 992.2
20260509023432 22 75 4.8 9.7 0.00 0.00 1.32 80 992.2
20260509022931 22 118 4.8 9.7 0.00 0.00 1.32 80 992.2
20260509022431 22 97 3.2 8.0 0.00 0.00 1.32 80 991.9
20260509021932 22 143 4.8 9.7 0.00 0.00 1.32 80 991.9
20260509021433 22 114 6.4 9.7 0.00 0.00 1.32 81 991.9
20260509020932 22 142 4.8 12.9 0.00 0.00 1.32 80 991.9
20260509020431 22 157 6.4 14.5 0.00 0.00 1.32 80 991.9
20260509015931 22 146 6.4 11.3 0.00 0.00 1.32 80 991.5
20260509015432 22 146 6.4 9.7 0.00 0.00 1.32 80 991.5
20260509014931 22 163 8.0 11.3 0.00 0.00 1.32 80 991.5
20260509014431 22 215 0.0 12.9 0.00 0.00 1.32 80 991.5
20260509013931 22 182 4.8 14.5 0.00 0.00 1.32 80 991.5
20260509013432 22 150 3.2 6.4 0.00 0.00 1.32 79 991.9
20260509012932 22 160 4.8 6.4 0.00 0.00 1.32 79 992.2
20260509012431 22 145 3.2 6.4 0.00 0.00 1.32 79 991.9
20260509011931 22 229 1.6 4.8 0.00 0.00 1.32 78 992.2
20260509011431 22 160 0.0 4.8 0.00 0.00 1.32 78 991.9
20260509010931 22 249 1.6 6.4 0.00 0.00 1.32 78 991.9
20260509010432 22 152 3.2 4.8 0.00 0.00 1.32 78 991.9
20260509005932 22 99 0.0 4.8 0.00 0.00 1.32 78 991.5
20260509005432 22 134 4.8 8.0 0.00 0.00 1.32 77 991.9
20260509004931 22 84 1.6 4.8 0.00 0.00 1.32 77 991.9
20260509004432 22 150 6.4 11.3 0.00 0.00 1.32 77 991.5
20260509003932 22 168 4.8 6.4 0.00 0.00 1.32 76 991.5
20260509003431 22 247 4.8 9.7 0.00 0.00 1.32 76 991.2
20260509002931 22 173 1.6 11.3 0.00 0.00 1.32 76 991.2
20260509002432 22 161 8.0 9.7 0.00 0.00 1.32 75 991.2
20260509001931 22 136 4.8 11.3 0.00 0.00 1.32 75 991.5
20260509001431 22 176 3.2 8.0 0.00 0.00 1.32 75 991.2
20260509000931 23 162 9.7 11.3 0.00 0.00 1.32 73 991.2
20260509000432 23 194 4.8 8.0 0.00 0.00 1.32 74 991.2
20260508235934 23 187 4.8 11.3 0.00 0.00 1.32 73 991.5
20260508235431 23 168 4.8 17.7 0.00 0.00 1.32 73 991.5
20260508234931 22 125 8.0 12.9 0.00 0.00 1.32 73 991.5
20260508234432 23 151 11.3 14.5 0.00 0.00 1.32 73 991.9
20260508233931 23 141 4.8 11.3 0.00 0.00 1.32 73 991.9
20260508233431 23 162 6.4 14.5 0.00 0.00 1.32 72 991.9
20260508232931 23 159 8.0 9.7 0.00 0.00 1.32 73 991.9
20260508232431 23 157 4.8 9.7 0.00 0.00 1.32 72 991.9
20260508231932 23 183 3.2 12.9 0.00 0.00 1.32 72 991.5
20260508231431 23 209 8.0 12.9 0.00 0.00 1.32 71 991.9
20260508230931 23 124 8.0 12.9 0.00 0.00 1.32 71 991.9
20260508230437 23 153 8.0 14.5 0.00 0.00 1.32 71 991.9
20260508225931 23 170 6.4 12.9 0.00 0.00 1.32 70 991.9
20260508225432 23 139 9.7 12.9 0.00 0.00 1.32 69 991.9
20260508224932 23 160 4.8 11.3 0.00 0.00 1.32 69 991.9
20260508224431 23 194 4.8 11.3 0.00 0.00 1.32 69 991.9
20260508223932 23 152 4.8 12.9 0.00 0.00 1.32 68 991.9
20260508223431 23 144 8.0 14.5 0.00 0.00 1.32 68 991.9
20260508222931 23 166 6.4 14.5 0.00 0.00 1.32 66 991.9
20260508222431 23 179 11.3 14.5 0.00 0.00 1.32 67 991.9
20260508221931 23 156 8.0 17.7 0.00 0.00 1.32 67 991.9
20260508221432 23 155 4.8 16.1 0.00 0.00 1.32 67 991.9
20260508220931 23 198 6.4 17.7 0.00 0.00 1.32 67 991.9
20260508220433 23 149 4.8 11.3 0.00 0.00 1.32 68 991.9
20260508215931 23 166 11.3 14.5 0.00 0.00 1.32 68 991.9
20260508215431 23 160 6.4 16.1 0.00 0.00 1.32 68 991.9
20260508214931 22 152 9.7 14.5 0.00 0.00 1.32 68 992.2
20260508214431 22 145 16.1 17.7 0.00 0.00 1.32 69 991.9
20260508213931 23 150 19.3 20.9 0.00 0.00 1.32 67 991.9
20260508213432 23 139 9.7 17.7 0.00 0.00 1.32 67 991.9
20260508212931 23 149 9.7 16.1 0.00 0.00 1.32 67 992.2
20260508212431 22 176 8.0 16.1 0.00 0.00 1.32 68 992.2
20260508211934 22 161 6.4 11.3 0.00 0.00 1.32 70 992.2
20260508211431 22 167 4.8 11.3 0.00 0.00 1.32 69 992.6
20260508210931 22 150 9.7 12.9 0.00 0.00 1.32 69 992.6
20260508210431 22 219 1.6 9.7 0.00 0.00 1.32 69 992.6
20260508205932 22 153 6.4 14.5 0.00 0.00 1.32 68 992.6
20260508205432 22 208 9.7 14.5 0.00 0.00 1.32 66 992.6
20260508204931 23 98 6.4 11.3 0.00 0.00 1.32 68 992.2
20260508204431 23 153 12.9 16.1 0.00 0.00 1.32 66 992.6
20260508203932 22 201 4.8 12.9 0.00 0.00 1.32 67 992.9
20260508203431 22 141 6.4 12.9 0.00 0.00 1.32 68 993.2
20260508202931 22 143 8.0 8.0 0.00 0.00 1.32 69 993.6
20260508202432 22 128 4.8 8.0 0.00 0.00 1.32 69 993.9
20260508201934 22 164 6.4 9.7 0.00 0.00 1.32 68 994.2
20260508201431 22 201 4.8 11.3 0.00 0.00 1.32 68 994.2
20260508200931 22 207 3.2 12.9 0.00 0.00 1.32 68 994.2
20260508200432 22 192 6.4 8.0 0.00 0.00 1.32 68 994.2
20260508195931 23 194 4.8 9.7 0.00 0.00 1.32 67 994.2
20260508195431 23 231 3.2 6.4 0.00 0.00 1.32 67 994.2
20260508194931 22 238 4.8 8.0 0.00 0.00 1.32 67 994.2
20260508194431 22 195 0.0 4.8 0.00 0.00 1.32 68 993.9
20260508193931 22 288 3.2 9.7 0.00 0.00 1.32 68 994.2
20260508193431 22 256 1.6 6.4 0.00 0.00 1.32 69 994.2
20260508192931 22 182 4.8 11.3 0.00 0.00 1.32 68 993.9
20260508192432 22 153 8.0 11.3 0.00 0.00 1.32 68 994.2
20260508191931 22 163 6.4 9.7 0.00 0.00 1.32 67 994.2
20260508191432 23 192 1.6 9.7 0.00 0.00 1.32 66 994.2
20260508190931 23 217 4.8 12.9 0.00 0.00 1.32 67 994.2
20260508190431 22 232 4.8 8.0 0.00 0.00 1.32 66 994.2
20260508185932 23 184 3.2 8.0 0.00 0.00 1.32 66 994.2
20260508185431 23 262 4.8 6.4 0.00 0.00 1.32 65 994.2
20260508184932 23 217 4.8 8.0 0.00 0.00 1.32 64 994.2
20260508184431 23 199 3.2 8.0 0.00 0.00 1.32 64 994.6
20260508183931 23 220 1.6 8.0 0.00 0.00 1.32 65 994.6
20260508183433 23 255 3.2 8.0 0.00 0.00 1.32 63 994.6
20260508182931 23 211 4.8 8.0 0.00 0.00 1.32 66 994.6
20260508182431 23 161 4.8 8.0 0.00 0.00 1.32 64 994.6
20260508181931 22 168 4.8 8.0 0.00 0.00 1.32 64 994.6
20260508181435 22 226 4.8 4.8 0.00 0.00 1.32 65 994.9
20260508180931 22 175 4.8 4.8 0.00 0.00 1.32 65 995.3
20260508180431 22 212 4.8 8.0 0.00 0.00 1.32 65 995.3
20260508175932 23 221 3.2 6.4 0.00 0.00 1.32 67 995.3
20260508175431 23 181 3.2 11.3 0.00 0.00 1.32 64 995.3
20260508174931 23 225 3.2 12.9 0.00 0.00 1.32 66 995.3
20260508174431 22 233 3.2 9.7 0.00 0.00 1.32 65 995.3
20260508173933 22 142 4.8 12.9 0.00 0.00 1.32 67 995.3
20260508173431 22 197 3.2 8.0 0.00 0.00 1.32 65 995.6
20260508172932 22 121 3.2 9.7 0.00 0.00 1.32 66 995.6
20260508172431 22 158 8.0 16.1 0.00 0.00 1.32 65 995.6
20260508171932 22 144 8.0 9.7 0.00 0.00 1.32 64 995.6
20260508171431 21 158 3.2 11.3 0.00 0.00 1.32 66 995.9
20260508170932 21 161 6.4 8.0 0.00 0.00 1.32 66 995.6
20260508170431 21 154 3.2 8.0 0.00 0.00 1.32 66 995.9
20260508165932 21 115 6.4 9.7 0.00 0.00 1.32 66 995.9
20260508165431 21 144 6.4 12.9 0.00 0.00 1.32 66 995.9
20260508164931 21 130 6.4 11.3 0.00 0.00 1.32 66 996.3
20260508164431 21 190 4.8 11.3 0.00 0.00 1.32 69 996.3
20260508163932 20 161 4.8 8.0 0.00 0.00 1.32 68 996.6
20260508163432 20 159 8.0 11.3 0.00 0.00 1.32 67 996.6
20260508162931 20 156 11.3 14.5 0.00 0.00 1.32 68 997.0
20260508162432 20 133 4.8 14.5 0.00 0.00 1.32 67 996.6
20260508161932 20 185 3.2 11.3 0.00 0.00 1.32 67 997.0
20260508161431 20 157 4.8 11.3 0.00 0.00 1.32 68 997.0
20260508160932 20 132 3.2 11.3 0.00 0.00 1.32 68 997.0
20260508160432 20 154 8.0 11.3 0.00 0.00 1.32 69 997.0
20260508155932 20 153 8.0 9.7 0.00 0.00 1.32 69 997.0
20260508155431 19 148 6.4 11.3 0.00 0.00 1.32 71 997.0
20260508154931 19 135 4.8 9.7 0.00 0.00 1.32 70 997.0
20260508154431 19 160 3.2 8.0 0.00 0.00 1.32 70 997.3
20260508153934 19 195 1.6 8.0 0.00 0.00 1.32 69 997.3
20260508153432 19 151 6.4 11.3 0.00 0.00 1.32 71 997.3
20260508152931 19 141 9.7 9.7 0.00 0.00 1.32 71 997.3
20260508152433 19 155 4.8 14.5 0.00 0.00 1.32 69 997.3
20260508151932 18 139 4.8 9.7 0.00 0.00 1.32 71 997.3
20260508151431 18 117 8.0 8.0 0.00 0.00 1.32 75 997.3
20260508150932 18 158 6.4 9.7 0.00 0.00 1.32 71 997.6